Location: Fuglau
(48.6333°N, 15.5500°E)
Time: 10:19:09
(UTC+00:00)

Cosmos 540 Rocket - Pass Details

Date: 27 February 2020
Orbit: 739 x 754 km, 74.1° (Epoch: 29 March)

Event Time Altitude Azimuth Distance (km) Brightness Sun altitude
Rises 19:27:31 0° 217° (SW) 3,173 6.9 -28.5°
Reaches altitude 10° 19:29:55 10° 223° (SW) 2,255 6.1 -28.8°
Maximum altitude 19:34:53 50° 299° (WNW) 951 4.2 -29.6°
Drops below altitude 10° 19:39:54 10° 15° (NNE) 2,280 6.0 -30.3°
Sets 19:42:21 0° 20° (NNE) 3,211 6.8 -30.7°
